Tracking 19709 objects as of 18-Jun-2019
HD Live streaming from Space Station
objects crossing your sky now

METEOR 2-17 DEB

Track METEOR 2-17 DEB now!
10-day predictions


NORAD ID: 35368
Int'l Code: 1988-005AC
Perigee: 895.9 km
Apogee: 927.2 km
Inclination: 82.6 °
Period: 103.1 minutes
Semi major axis: 7282 km
RCS: 0.0006 m2 (small)
Launch date: January 30, 1988
Source: Commonwealth of Independent States (former USSR) (CIS)
Launch site: PLESETSK MISSILE AND SPACE COMPLEX (PKMTR)

Note: This is SATELLITE DEBRIS
aabbcc
Your satellite tracking list
Your tracking list is empty




NASA's NSSDC Master Catalog

Two Line Element Set (TLE):
1 35368U 88005AC  19164.77483325  .00000666  00000-0  46648-3 0  9995
2 35368  82.5624 175.9882 0021464 296.8537  63.0436 13.96940733620860
Source of the keplerian elements: AFSPC